Flag for Canada Weather past 2 weeks in Calgary, Alberta, Canada

Now
66 °F

Passing clouds.


Feels Like: 66 °F
Forecast: 38 / 75 °F
Wind: 6 mph from South

Location: Calgary International

Current Time: May 22, 2015 at 12:42:56 PM

Latest Report: May 22, 2015 at 12:00 PM


Visibility: 40 mi

Pressure: 30.01 "Hg

Humidity: 26%

Dew point: 30 °F

Location of CalgaryLocation

Historic Weather in Calgary — Graph

°F

Calgary temperature yesterday

Maximum temperature yesterday: 70 °F (at 3:00 PM)
Minimum temperature yesterday: 41 °F (at 5:00 AM)
Average temperature yesterday: 57 °F

Past Weeks' High & Low Weather Summary

 TemperatureHumidityPressure
High70 °F (May 21, 3:00 PM)100% (May 8, 3:00 AM)30.49 "Hg (May 8, 3:00 AM)
Low27 °F (May 12, 5:00 AM)14% (May 11, 6:00 PM)29.88 "Hg (May 15, 7:00 PM)
Average47 °F54%30.18 "Hg
* Reported May 7 11:00 AM — May 22 11:00 AM, Calgary, Weather by CustomWeather, © 2015

Note: Actual official high and low records may vary slightly from our data, if they occured in-between our weather recording intervals... More about our weather records

Advertising

Calgary weather history for previous 24 hours

 ConditionsComfort  
Time TempWeatherWind HumidityBarometerVisibility
11:00 AM
Fri, May 22
64 °FPassing clouds.10 mph34%30.02 "Hg40 mi
10:00 AM61 °FPassing clouds.No wind36%30.01 "Hg40 mi
9:00 AM55 °FPassing clouds.2 mph44%30.01 "Hg40 mi
8:00 AM48 °FPassing clouds.2 mph54%30.01 "Hg40 mi
7:00 AM41 °FPassing clouds.3 mph70%30.02 "Hg40 mi
6:00 AM37 °FPassing clouds.No wind70%30.01 "Hg40 mi
5:00 AM39 °FPassing clouds.2 mph65%30.01 "Hg15 mi
4:00 AM41 °FPassing clouds.No wind61%30.00 "Hg15 mi
3:00 AM43 °FClear.2 mph57%30.01 "Hg15 mi
2:00 AM45 °FClear.2 mph57%30.00 "Hg15 mi
1:00 AM50 °FClear.No wind47%29.99 "Hg15 mi
12:00 AM54 °FPassing clouds.5 mph38%29.98 "Hg15 mi
11:00 PM
Thu, May 21
55 °FPassing clouds.6 mph36%29.99 "Hg15 mi
10:00 PM59 °FPassing clouds.10 mph27%29.98 "Hg20 mi
9:00 PM64 °FPassing clouds.12 mph22%29.97 "Hg20 mi
8:00 PM66 °FPassing clouds.15 mph22%29.97 "Hg30 mi
7:00 PM70 °FPassing clouds.10 mph17%29.97 "Hg40 mi
6:00 PM70 °FPassing clouds.13 mph21%29.99 "Hg40 mi
5:00 PM70 °FPassing clouds.17 mph17%30.00 "Hg40 mi
4:00 PM70 °FPassing clouds.18 mph15%30.01 "Hg40 mi
3:00 PM70 °FPassing clouds.14 mph20%30.02 "Hg40 mi
2:00 PM68 °FPassing clouds.15 mph21%30.03 "Hg40 mi
1:00 PM66 °FPassing clouds.16 mph22%30.04 "Hg40 mi
12:00 PM64 °FPassing clouds.16 mph24%30.04 "Hg40 mi
Weather by CustomWeather, © 2015

See weather overviewHow to use our weather pages